| time (UTC) | temp C | wind direction | speed KPH | gust KPH | rain 1hr cm | rain 24hr cm | rain mn cm | humidity % | barometer mb |
| 20260507164040 | 16 | 233 | 12.9 | 25.7 | 0.00 | 0.00 | 0.00 | 48 | 1016.9 |
| 20260507163540 | 16 | 242 | 12.9 | 20.9 | 0.00 | 0.00 | 0.00 | 49 | 1017.0 |
| 20260507163049 | 16 | 249 | 9.7 | 20.9 | 0.00 | 0.00 | 0.00 | 50 | 1017.1 |
| 20260507162540 | 16 | 232 | 11.3 | 20.9 | 0.00 | 0.00 | 0.00 | 49 | 1017.1 |
| 20260507162043 | 16 | 159 | 9.7 | 20.9 | 0.00 | 0.00 | 0.00 | 51 | 1017.2 |
| 20260507161604 | 16 | 208 | 12.9 | 20.9 | 0.00 | 0.00 | 0.00 | 52 | 1017.1 |
| 20260507161040 | 16 | 178 | 9.7 | 20.9 | 0.00 | 0.00 | 0.00 | 52 | 1017.3 |
| 20260507160540 | 16 | 254 | 11.3 | 20.9 | 0.00 | 0.00 | 0.00 | 51 | 1017.3 |
| 20260507160047 | 16 | 252 | 8.0 | 20.9 | 0.00 | 0.00 | 0.00 | 53 | 1017.2 |
| 20260507155540 | 15 | 252 | 11.3 | 24.1 | 0.00 | 0.00 | 0.00 | 52 | 1017.2 |
| 20260507155040 | 15 | 313 | 6.4 | 24.1 | 0.00 | 0.00 | 0.00 | 53 | 1017.2 |
| 20260507154551 | 15 | 247 | 12.9 | 20.9 | 0.00 | 0.00 | 0.00 | 53 | 1017.4 |
| 20260507154040 | 15 | 178 | 8.0 | 22.5 | 0.00 | 0.00 | 0.00 | 55 | 1017.4 |
| 20260507153539 | 15 | 236 | 9.7 | 22.5 | 0.00 | 0.00 | 0.00 | 56 | 1017.5 |
| 20260507153057 | 15 | 252 | 11.3 | 22.5 | 0.00 | 0.00 | 0.00 | 55 | 1017.5 |
| 20260507152540 | 15 | 216 | 9.7 | 20.9 | 0.00 | 0.00 | 0.00 | 57 | 1017.5 |
| 20260507152040 | 14 | 234 | 9.7 | 20.9 | 0.00 | 0.00 | 0.00 | 57 | 1017.5 |
| 20260507151543 | 14 | 161 | 9.7 | 20.9 | 0.00 | 0.00 | 0.00 | 58 | 1017.7 |
| 20260507151039 | 14 | 193 | 11.3 | 20.9 | 0.00 | 0.00 | 0.00 | 58 | 1017.8 |
| 20260507150540 | 14 | 271 | 9.7 | 19.3 | 0.00 | 0.00 | 0.00 | 60 | 1017.8 |
| 20260507150055 | 13 | 275 | 8.0 | 19.3 | 0.00 | 0.00 | 0.00 | 61 | 1017.8 |
| 20260507145540 | 13 | 247 | 6.4 | 20.9 | 0.00 | 0.00 | 0.00 | 62 | 1017.9 |
| 20260507145043 | 13 | 250 | 6.4 | 20.9 | 0.00 | 0.00 | 0.00 | 64 | 1018.0 |
| 20260507144551 | 13 | 294 | 6.4 | 20.9 | 0.00 | 0.00 | 0.00 | 63 | 1018.0 |
| 20260507144043 | 13 | 319 | 9.7 | 19.3 | 0.00 | 0.00 | 0.00 | 64 | 1018.1 |
| 20260507143539 | 13 | 248 | 6.4 | 19.3 | 0.00 | 0.00 | 0.00 | 66 | 1018.1 |
| 20260507143051 | 12 | 225 | 4.8 | 19.3 | 0.00 | 0.00 | 0.00 | 67 | 1018.1 |
| 20260507142540 | 12 | 288 | 4.8 | 17.7 | 0.00 | 0.00 | 0.00 | 67 | 1018.2 |
| 20260507142040 | 12 | 275 | 6.4 | 17.7 | 0.00 | 0.00 | 0.00 | 68 | 1018.1 |
| 20260507141559 | 12 | 252 | 9.7 | 17.7 | 0.00 | 0.00 | 0.00 | 68 | 1018.2 |
| 20260507141044 | 12 | 282 | 6.4 | 19.3 | 0.00 | 0.00 | 0.00 | 70 | 1018.2 |
| 20260507140540 | 11 | 268 | 6.4 | 19.3 | 0.00 | 0.00 | 0.00 | 70 | 1018.3 |
| 20260507140051 | 11 | 265 | 11.3 | 19.3 | 0.00 | 0.00 | 0.00 | 72 | 1018.3 |
| 20260507135540 | 11 | 259 | 8.0 | 16.1 | 0.00 | 0.00 | 0.00 | 74 | 1018.5 |
| 20260507135040 | 11 | 236 | 4.8 | 19.3 | 0.00 | 0.00 | 0.00 | 76 | 1018.4 |
| 20260507134545 | 10 | 232 | 4.8 | 19.3 | 0.00 | 0.00 | 0.00 | 78 | 1018.5 |
| 20260507134039 | 10 | 236 | 4.8 | 17.7 | 0.00 | 0.00 | 0.00 | 80 | 1018.5 |
| 20260507133540 | 10 | 319 | 8.0 | 16.1 | 0.00 | 0.00 | 0.00 | 82 | 1018.5 |
| 20260507133044 | 10 | 246 | 4.8 | 12.9 | 0.00 | 0.00 | 0.00 | 84 | 1018.5 |
| 20260507132539 | 9 | 265 | 3.2 | 11.3 | 0.00 | 0.00 | 0.00 | 86 | 1018.5 |
| 20260507132039 | 9 | 9 | 1.6 | 9.7 | 0.00 | 0.00 | 0.00 | 87 | 1018.5 |
| 20260507131542 | 8 | 298 | 3.2 | 6.4 | 0.00 | 0.00 | 0.00 | 87 | 1018.6 |
| 20260507131043 | 8 | 280 | 1.6 | 6.4 | 0.00 | 0.00 | 0.00 | 87 | 1018.6 |
| 20260507130539 | 8 | 265 | 1.6 | 6.4 | 0.00 | 0.00 | 0.00 | 88 | 1018.6 |
| 20260507130046 | 8 | 227 | 1.6 | 6.4 | 0.00 | 0.00 | 0.00 | 88 | 1018.6 |
| 20260507125540 | 7 | 245 | 1.6 | 6.4 | 0.00 | 0.00 | 0.00 | 88 | 1018.6 |
| 20260507125040 | 7 | 259 | 1.6 | 4.8 | 0.00 | 0.00 | 0.00 | 88 | 1018.5 |
| 20260507124543 | 7 | 178 | 1.6 | 4.8 | 0.00 | 0.00 | 0.00 | 88 | 1018.5 |
| 20260507124039 | 7 | 0 | 0.0 | 3.2 | 0.00 | 0.00 | 0.00 | 88 | 1018.4 |
| 20260507123540 | 6 | 0 | 0.0 | 3.2 | 0.00 | 0.00 | 0.00 | 88 | 1018.3 |
| 20260507123045 | 6 | 212 | 0.0 | 3.2 | 0.00 | 0.00 | 0.00 | 88 | 1018.3 |
| 20260507122539 | 6 | 0 | 0.0 | 3.2 | 0.00 | 0.00 | 0.00 | 87 | 1018.3 |
| 20260507122039 | 6 | 178 | 0.0 | 3.2 | 0.00 | 0.00 | 0.00 | 87 | 1018.4 |
| 20260507121545 | 6 | 178 | 0.0 | 3.2 | 0.00 | 0.00 | 0.00 | 87 | 1018.5 |
| 20260507121040 | 5 | 162 | 0.0 | 3.2 | 0.00 | 0.00 | 0.00 | 86 | 1018.4 |
| 20260507120539 | 5 | 0 | 0.0 | 3.2 | 0.00 | 0.00 | 0.00 | 86 | 1018.3 |
| 20260507120100 | 5 | 325 | 0.0 | 3.2 | 0.00 | 0.00 | 0.00 | 86 | 1018.4 |
| 20260507115539 | 5 | 265 | 0.0 | 1.6 | 0.00 | 0.00 | 0.00 | 86 | 1018.2 |
| 20260507115043 | 5 | 0 | 0.0 | 1.6 | 0.00 | 0.00 | 0.00 | 85 | 1018.1 |
| 20260507114547 | 5 | 205 | 0.0 | 1.6 | 0.00 | 0.00 | 0.00 | 85 | 1018.1 |
| 20260507114040 | 5 | 0 | 0.0 | 1.6 | 0.00 | 0.00 | 0.00 | 85 | 1018.0 |
| 20260507113540 | 5 | 0 | 0.0 | 1.6 | 0.00 | 0.00 | 0.00 | 85 | 1018.0 |
| 20260507113051 | 5 | 0 | 0.0 | 1.6 | 0.00 | 0.00 | 0.00 | 84 | 1018.0 |
| 20260507112540 | 6 | 0 | 0.0 | 1.6 | 0.00 | 0.00 | 0.00 | 84 | 1018.0 |
| 20260507112040 | 6 | 0 | 0.0 | 1.6 | 0.00 | 0.00 | 0.00 | 84 | 1018.0 |
| 20260507111549 | 6 | 0 | 0.0 | 1.6 | 0.00 | 0.00 | 0.00 | 84 | 1018.0 |
| 20260507111039 | 6 | 0 | 0.0 | 1.6 | 0.00 | 0.00 | 0.00 | 84 | 1018.0 |
| 20260507110540 | 6 | 0 | 0.0 | 1.6 | 0.00 | 0.00 | 0.00 | 84 | 1018.0 |
| 20260507110059 | 6 | 51 | 0.0 | 1.6 | 0.00 | 0.00 | 0.00 | 83 | 1018.0 |
| 20260507105539 | 6 | 0 | 0.0 | 1.6 | 0.00 | 0.00 | 0.00 | 83 | 1018.0 |
| 20260507105039 | 6 | 0 | 0.0 | 1.6 | 0.00 | 0.00 | 0.00 | 83 | 1018.0 |
| 20260507104544 | 6 | 178 | 0.0 | 1.6 | 0.00 | 0.00 | 0.00 | 82 | 1018.0 |
| 20260507104039 | 6 | 0 | 0.0 | 1.6 | 0.00 | 0.00 | 0.00 | 82 | 1018.0 |
| 20260507103539 | 6 | 0 | 0.0 | 1.6 | 0.00 | 0.00 | 0.00 | 82 | 1018.1 |
| 20260507103048 | 6 | 291 | 0.0 | 1.6 | 0.00 | 0.00 | 0.00 | 81 | 1018.1 |
| 20260507102539 | 6 | 0 | 0.0 | 1.6 | 0.00 | 0.00 | 0.00 | 81 | 1018.2 |
| 20260507102042 | 6 | 0 | 0.0 | 3.2 | 0.00 | 0.00 | 0.00 | 81 | 1018.3 |
| 20260507101559 | 6 | 0 | 0.0 | 3.2 | 0.00 | 0.00 | 0.00 | 81 | 1018.4 |
| 20260507101039 | 6 | 9 | 0.0 | 1.6 | 0.00 | 0.00 | 0.00 | 80 | 1018.5 |
| 20260507100542 | 6 | 9 | 0.0 | 1.6 | 0.00 | 0.00 | 0.00 | 80 | 1018.3 |
| 20260507100049 | 7 | 0 | 0.0 | 1.6 | 0.00 | 0.00 | 0.00 | 79 | 1018.4 |
| 20260507095540 | 7 | 0 | 0.0 | 1.6 | 0.00 | 0.00 | 0.00 | 79 | 1018.5 |
| 20260507095039 | 7 | 0 | 0.0 | 1.6 | 0.00 | 0.00 | 0.00 | 79 | 1018.4 |
| 20260507094550 | 7 | 0 | 0.0 | 1.6 | 0.00 | 0.00 | 0.00 | 78 | 1018.5 |
| 20260507094039 | 7 | 0 | 0.0 | 1.6 | 0.00 | 0.00 | 0.00 | 78 | 1018.5 |
| 20260507093539 | 7 | 0 | 0.0 | 1.6 | 0.00 | 0.00 | 0.00 | 78 | 1018.4 |
| 20260507093050 | 7 | 0 | 0.0 | 1.6 | 0.00 | 0.00 | 0.00 | 78 | 1018.3 |
| 20260507092539 | 7 | 0 | 0.0 | 1.6 | 0.00 | 0.00 | 0.00 | 78 | 1018.5 |
| 20260507092042 | 8 | 0 | 0.0 | 1.6 | 0.00 | 0.00 | 0.00 | 78 | 1018.5 |
| 20260507091549 | 8 | 0 | 0.0 | 1.6 | 0.00 | 0.00 | 0.00 | 78 | 1018.5 |
| 20260507091039 | 8 | 0 | 0.0 | 1.6 | 0.00 | 0.00 | 0.00 | 78 | 1018.5 |
| 20260507090541 | 8 | 0 | 0.0 | 1.6 | 0.00 | 0.00 | 0.00 | 78 | 1018.4 |
| 20260507090055 | 8 | 0 | 0.0 | 3.2 | 0.00 | 0.00 | 0.00 | 78 | 1018.5 |
| 20260507085541 | 8 | 239 | 0.0 | 3.2 | 0.00 | 0.03 | 0.00 | 78 | 1018.5 |
| 20260507085043 | 8 | 232 | 0.0 | 3.2 | 0.00 | 0.03 | 0.00 | 78 | 1018.4 |
| 20260507084551 | 8 | 221 | 0.0 | 3.2 | 0.00 | 0.03 | 0.00 | 78 | 1018.4 |
| 20260507084040 | 8 | 221 | 0.0 | 3.2 | 0.00 | 0.03 | 0.00 | 79 | 1018.4 |
| 20260507083539 | 8 | 0 | 0.0 | 3.2 | 0.00 | 0.03 | 0.00 | 79 | 1018.5 |
| 20260507083049 | 8 | 0 | 0.0 | 3.2 | 0.00 | 0.03 | 0.00 | 79 | 1018.5 |
| 20260507082539 | 8 | 239 | 1.6 | 3.2 | 0.00 | 0.03 | 0.00 | 79 | 1018.5 |
| 20260507082039 | 8 | 250 | 1.6 | 3.2 | 0.00 | 0.03 | 0.00 | 79 | 1018.7 |
| 20260507081551 | 8 | 0 | 0.0 | 1.6 | 0.00 | 0.03 | 0.00 | 79 | 1018.6 |
| 20260507081040 | 8 | 0 | 0.0 | 1.6 | 0.00 | 0.03 | 0.00 | 79 | 1018.6 |
| 20260507080540 | 8 | 0 | 0.0 | 1.6 | 0.00 | 0.03 | 0.00 | 79 | 1018.6 |
| 20260507080054 | 8 | 0 | 0.0 | 3.2 | 0.00 | 0.03 | 0.00 | 79 | 1018.7 |
| 20260507075539 | 8 | 0 | 0.0 | 3.2 | 0.00 | 0.03 | 0.00 | 79 | 1018.8 |
| 20260507075040 | 8 | 178 | 0.0 | 3.2 | 0.00 | 0.03 | 0.00 | 79 | 1018.8 |
| 20260507074553 | 8 | 0 | 0.0 | 3.2 | 0.00 | 0.03 | 0.00 | 79 | 1018.8 |
| 20260507074039 | 8 | 0 | 0.0 | 3.2 | 0.00 | 0.03 | 0.00 | 79 | 1018.9 |
| 20260507073540 | 8 | 221 | 0.0 | 3.2 | 0.00 | 0.03 | 0.00 | 79 | 1018.8 |
| 20260507073059 | 8 | 178 | 0.0 | 1.6 | 0.00 | 0.03 | 0.00 | 79 | 1018.9 |
| 20260507072540 | 8 | 162 | 0.0 | 3.2 | 0.00 | 0.03 | 0.00 | 79 | 1018.9 |
| 20260507072039 | 8 | 178 | 0.0 | 3.2 | 0.00 | 0.03 | 0.00 | 79 | 1019.0 |
| 20260507071548 | 8 | 0 | 0.0 | 1.6 | 0.00 | 0.03 | 0.00 | 79 | 1019.1 |
| 20260507071039 | 8 | 265 | 0.0 | 1.6 | 0.00 | 0.03 | 0.00 | 80 | 1019.1 |
| 20260507070539 | 8 | 0 | 0.0 | 3.2 | 0.00 | 0.03 | 0.00 | 80 | 1019.1 |
| 20260507070047 | 8 | 0 | 0.0 | 3.2 | 0.00 | 0.03 | 0.00 | 80 | 1019.1 |
| 20260507065539 | 8 | 334 | 1.6 | 3.2 | 0.00 | 0.03 | 0.00 | 80 | 1019.2 |
| 20260507065039 | 8 | 319 | 0.0 | 4.8 | 0.00 | 0.03 | 0.00 | 80 | 1019.3 |
| 20260507064605 | 8 | 9 | 0.0 | 4.8 | 0.00 | 0.03 | 0.00 | 80 | 1019.4 |
| 20260507064039 | 8 | 205 | 1.6 | 4.8 | 0.00 | 0.03 | 0.00 | 80 | 1019.3 |
| 20260507063538 | 8 | 205 | 0.0 | 3.2 | 0.00 | 0.03 | 0.00 | 80 | 1019.2 |
| 20260507063057 | 8 | 205 | 0.0 | 3.2 | 0.00 | 0.03 | 0.00 | 80 | 1019.1 |
| 20260507062539 | 8 | 178 | 0.0 | 3.2 | 0.00 | 0.03 | 0.00 | 80 | 1019.2 |
| 20260507062040 | 8 | 221 | 0.0 | 3.2 | 0.00 | 0.03 | 0.00 | 80 | 1019.2 |
| 20260507061545 | 8 | 178 | 0.0 | 3.2 | 0.00 | 0.03 | 0.00 | 80 | 1019.2 |
| 20260507061039 | 8 | 239 | 0.0 | 3.2 | 0.00 | 0.03 | 0.00 | 80 | 1019.3 |
| 20260507060540 | 8 | 250 | 0.0 | 3.2 | 0.00 | 0.03 | 0.00 | 79 | 1019.3 |
| 20260507060052 | 8 | 221 | 0.0 | 3.2 | 0.00 | 0.03 | 0.00 | 79 | 1019.1 |
| 20260507055540 | 8 | 0 | 0.0 | 3.2 | 0.00 | 0.03 | 0.00 | 79 | 1019.3 |
| 20260507055040 | 8 | 9 | 0.0 | 3.2 | 0.00 | 0.03 | 0.00 | 79 | 1019.6 |
| 20260507054550 | 8 | 0 | 0.0 | 1.6 | 0.00 | 0.03 | 0.00 | 79 | 1019.5 |
| 20260507054041 | 8 | 221 | 0.0 | 3.2 | 0.00 | 0.03 | 0.00 | 78 | 1019.5 |
| 20260507053541 | 8 | 196 | 0.0 | 3.2 | 0.00 | 0.03 | 0.00 | 78 | 1019.6 |
| 20260507053050 | 8 | 0 | 0.0 | 3.2 | 0.00 | 0.03 | 0.00 | 77 | 1019.5 |
| 20260507052541 | 8 | 0 | 0.0 | 1.6 | 0.00 | 0.03 | 0.00 | 76 | 1019.3 |
| 20260507052041 | 8 | 0 | 0.0 | 1.6 | 0.00 | 0.03 | 0.00 | 75 | 1019.3 |
| 20260507051545 | 8 | 0 | 0.0 | 1.6 | 0.00 | 0.03 | 0.00 | 75 | 1019.3 |
| 20260507051044 | 8 | 111 | 0.0 | 1.6 | 0.00 | 0.03 | 0.00 | 74 | 1019.2 |
| 20260507050540 | 8 | 0 | 0.0 | 1.6 | 0.00 | 0.03 | 0.00 | 74 | 1019.4 |
| 20260507050047 | 8 | 0 | 0.0 | 1.6 | 0.00 | 0.03 | 0.00 | 73 | 1019.3 |
| 20260507045542 | 8 | 0 | 0.0 | 1.6 | 0.00 | 0.03 | 0.03 | 73 | 1019.2 |
| 20260507045041 | 8 | 0 | 0.0 | 1.6 | 0.00 | 0.03 | 0.03 | 72 | 1019.2 |
| 20260507044554 | 9 | 0 | 0.0 | 1.6 | 0.00 | 0.03 | 0.03 | 73 | 1019.2 |
| 20260507044040 | 9 | 0 | 0.0 | 1.6 | 0.00 | 0.03 | 0.03 | 72 | 1019.2 |
| 20260507043540 | 9 | 0 | 0.0 | 1.6 | 0.00 | 0.03 | 0.03 | 71 | 1019.1 |
| 20260507043052 | 10 | 0 | 0.0 | 3.2 | 0.00 | 0.03 | 0.03 | 71 | 1019.1 |
| 20260507042542 | 10 | 51 | 0.0 | 3.2 | 0.00 | 0.03 | 0.03 | 71 | 1019.2 |
| 20260507042041 | 10 | 0 | 0.0 | 3.2 | 0.00 | 0.03 | 0.03 | 70 | 1019.1 |
| 20260507041558 | 10 | 0 | 0.0 | 1.6 | 0.00 | 0.03 | 0.03 | 69 | 1019.1 |
| 20260507041044 | 10 | 0 | 0.0 | 1.6 | 0.00 | 0.03 | 0.03 | 68 | 1019.1 |
| 20260507040543 | 10 | 0 | 0.0 | 1.6 | 0.00 | 0.03 | 0.03 | 68 | 1018.8 |
| 20260507040105 | 10 | 309 | 0.0 | 1.6 | 0.00 | 0.03 | 0.03 | 67 | 1019.0 |
| 20260507035543 | 10 | 0 | 0.0 | 3.2 | 0.00 | 0.03 | 0.03 | 67 | 1019.1 |
| 20260507035041 | 10 | 0 | 0.0 | 3.2 | 0.00 | 0.03 | 0.03 | 68 | 1019.2 |
| 20260507034610 | 11 | 250 | 1.6 | 3.2 | 0.00 | 0.03 | 0.03 | 67 | 1019.2 |
| 20260507034041 | 11 | 265 | 0.0 | 3.2 | 0.00 | 0.03 | 0.03 | 66 | 1019.2 |
| 20260507033541 | 11 | 250 | 1.6 | 6.4 | 0.00 | 0.03 | 0.03 | 65 | 1019.3 |
| 20260507033105 | 11 | 0 | 0.0 | 6.4 | 0.00 | 0.03 | 0.03 | 64 | 1019.1 |
| 20260507032544 | 11 | 61 | 1.6 | 6.4 | 0.00 | 0.03 | 0.03 | 64 | 1019.0 |
| 20260507032040 | 11 | 0 | 0.0 | 1.6 | 0.00 | 0.03 | 0.03 | 63 | 1018.9 |
| 20260507031551 | 11 | 0 | 0.0 | 1.6 | 0.00 | 0.03 | 0.03 | 64 | 1018.9 |
| 20260507031040 | 12 | 0 | 0.0 | 1.6 | 0.00 | 0.03 | 0.03 | 63 | 1019.1 |
| 20260507030545 | 12 | 0 | 0.0 | 1.6 | 0.00 | 0.03 | 0.03 | 62 | 1018.9 |
| 20260507030051 | 12 | 0 | 0.0 | 1.6 | 0.00 | 0.03 | 0.03 | 61 | 1019.0 |
| 20260507025542 | 12 | 0 | 0.0 | 1.6 | 0.00 | 0.03 | 0.03 | 61 | 1019.0 |
| 20260507025040 | 12 | 0 | 0.0 | 3.2 | 0.00 | 0.03 | 0.03 | 61 | 1018.9 |
| 20260507024557 | 12 | 0 | 0.0 | 3.2 | 0.00 | 0.03 | 0.03 | 61 | 1018.9 |
| 20260507024043 | 12 | 0 | 0.0 | 3.2 | 0.00 | 0.03 | 0.03 | 59 | 1018.9 |
| 20260507023545 | 12 | 0 | 0.0 | 3.2 | 0.00 | 0.03 | 0.03 | 59 | 1018.8 |
| 20260507023047 | 12 | 0 | 0.0 | 3.2 | 0.00 | 0.03 | 0.03 | 59 | 1018.7 |
| 20260507022541 | 13 | 309 | 0.0 | 1.6 | 0.00 | 0.03 | 0.03 | 59 | 1018.7 |
| 20260507022041 | 13 | 0 | 0.0 | 1.6 | 0.00 | 0.03 | 0.03 | 59 | 1018.6 |
| 20260507021558 | 13 | 0 | 0.0 | 3.2 | 0.00 | 0.03 | 0.03 | 58 | 1018.6 |
| 20260507021044 | 13 | 0 | 0.0 | 3.2 | 0.00 | 0.03 | 0.03 | 58 | 1018.7 |
| 20260507020541 | 13 | 265 | 0.0 | 3.2 | 0.00 | 0.03 | 0.03 | 57 | 1018.6 |
| 20260507020057 | 13 | 298 | 1.6 | 3.2 | 0.00 | 0.03 | 0.03 | 55 | 1018.5 |
| 20260507015543 | 13 | 292 | 1.6 | 3.2 | 0.00 | 0.03 | 0.03 | 56 | 1018.3 |
| 20260507015041 | 13 | 221 | 0.0 | 4.8 | 0.00 | 0.03 | 0.03 | 53 | 1018.2 |
| 20260507014554 | 13 | 22 | 1.6 | 4.8 | 0.00 | 0.03 | 0.03 | 52 | 1018.1 |
| 20260507014040 | 13 | 22 | 1.6 | 4.8 | 0.00 | 0.03 | 0.03 | 51 | 1018.1 |
| 20260507013540 | 13 | 0 | 3.2 | 6.4 | 0.00 | 0.03 | 0.03 | 51 | 1017.9 |
| 20260507013103 | 13 | 26 | 1.6 | 8.0 | 0.00 | 0.03 | 0.03 | 51 | 1017.9 |
| 20260507012542 | 13 | 15 | 3.2 | 8.0 | 0.00 | 0.03 | 0.03 | 51 | 1017.9 |
| 20260507012041 | 13 | 15 | 3.2 | 8.0 | 0.00 | 0.03 | 0.03 | 50 | 1017.8 |
| 20260507011544 | 13 | 20 | 4.8 | 8.0 | 0.00 | 0.03 | 0.03 | 50 | 1017.8 |
| 20260507011044 | 13 | 15 | 4.8 | 11.3 | 0.00 | 0.03 | 0.03 | 50 | 1017.8 |
| 20260507010540 | 13 | 22 | 6.4 | 11.3 | 0.00 | 0.03 | 0.03 | 49 | 1017.7 |
| 20260507010051 | 13 | 25 | 4.8 | 9.7 | 0.00 | 0.03 | 0.03 | 49 | 1017.8 |
| 20260507005541 | 14 | 13 | 4.8 | 12.9 | 0.00 | 0.03 | 0.03 | 48 | 1017.8 |
| 20260507005040 | 14 | 30 | 3.2 | 12.9 | 0.00 | 0.03 | 0.03 | 48 | 1017.9 |
| 20260507004551 | 14 | 24 | 6.4 | 12.9 | 0.00 | 0.03 | 0.03 | 48 | 1017.8 |
| 20260507004040 | 14 | 36 | 6.4 | 14.5 | 0.00 | 0.03 | 0.03 | 47 | 1017.8 |
| 20260507003542 | 14 | 38 | 8.0 | 14.5 | 0.00 | 0.03 | 0.03 | 47 | 1017.8 |
| 20260507003051 | 14 | 40 | 6.4 | 14.5 | 0.00 | 0.03 | 0.03 | 47 | 1017.8 |
| 20260507002540 | 14 | 32 | 8.0 | 14.5 | 0.00 | 0.03 | 0.03 | 46 | 1017.8 |
| 20260507002041 | 14 | 20 | 8.0 | 14.5 | 0.00 | 0.03 | 0.03 | 46 | 1017.9 |
| 20260507001604 | 14 | 23 | 6.4 | 16.1 | 0.00 | 0.03 | 0.03 | 46 | 1017.8 |
| 20260507001040 | 14 | 22 | 8.0 | 17.7 | 0.00 | 0.03 | 0.03 | 45 | 1017.7 |
| 20260507000540 | 15 | 344 | 8.0 | 17.7 | 0.00 | 0.03 | 0.03 | 46 | 1017.7 |
| 20260507000046 | 15 | 346 | 9.7 | 17.7 | 0.00 | 0.03 | 0.03 | 45 | 1017.7 |
| 20260506235541 | 15 | 28 | 6.4 | 14.5 | 0.00 | 0.03 | 0.03 | 46 | 1017.6 |
| 20260506235040 | 15 | 337 | 6.4 | 14.5 | 0.00 | 0.03 | 0.03 | 46 | 1017.5 |
| 20260506234557 | 15 | 330 | 4.8 | 19.3 | 0.00 | 0.03 | 0.03 | 45 | 1017.6 |
| 20260506234040 | 15 | 29 | 8.0 | 19.3 | 0.00 | 0.03 | 0.03 | 44 | 1017.5 |
| 20260506233541 | 15 | 9 | 11.3 | 19.3 | 0.00 | 0.03 | 0.03 | 44 | 1017.4 |
| 20260506233045 | 15 | 18 | 9.7 | 19.3 | 0.00 | 0.03 | 0.03 | 44 | 1017.5 |
| 20260506232540 | 15 | 30 | 8.0 | 14.5 | 0.00 | 0.03 | 0.03 | 45 | 1017.4 |
| 20260506232041 | 15 | 347 | 6.4 | 17.7 | 0.00 | 0.03 | 0.03 | 45 | 1017.4 |
| 20260506231545 | 15 | 11 | 9.7 | 17.7 | 0.00 | 0.03 | 0.03 | 44 | 1017.5 |
| 20260506231041 | 15 | 36 | 8.0 | 17.7 | 0.00 | 0.03 | 0.03 | 44 | 1017.4 |
| 20260506230540 | 15 | 20 | 8.0 | 17.7 | 0.00 | 0.03 | 0.03 | 44 | 1017.3 |
| 20260506230052 | 15 | 41 | 9.7 | 16.1 | 0.00 | 0.03 | 0.03 | 44 | 1017.4 |
| 20260506225543 | 15 | 19 | 6.4 | 20.9 | 0.00 | 0.03 | 0.03 | 44 | 1017.5 |
| 20260506225041 | 15 | 342 | 9.7 | 20.9 | 0.00 | 0.03 | 0.03 | 44 | 1017.4 |
| 20260506224605 | 15 | 53 | 14.5 | 20.9 | 0.00 | 0.03 | 0.03 | 43 | 1017.3 |
| 20260506224040 | 16 | 25 | 4.8 | 17.7 | 0.00 | 0.03 | 0.03 | 43 | 1017.2 |
| 20260506223540 | 16 | 23 | 8.0 | 20.9 | 0.00 | 0.03 | 0.03 | 42 | 1017.2 |
| 20260506223054 | 16 | 36 | 9.7 | 20.9 | 0.00 | 0.03 | 0.03 | 42 | 1017.1 |
| 20260506222541 | 16 | 31 | 14.5 | 24.1 | 0.00 | 0.03 | 0.03 | 41 | 1017.1 |
| 20260506222040 | 16 | 45 | 16.1 | 24.1 | 0.00 | 0.03 | 0.03 | 41 | 1017.1 |
| 20260506221549 | 16 | 21 | 8.0 | 17.7 | 0.00 | 0.03 | 0.03 | 42 | 1017.1 |
| 20260506221040 | 16 | 23 | 6.4 | 17.7 | 0.00 | 0.03 | 0.03 | 40 | 1017.1 |
| 20260506220541 | 16 | 338 | 9.7 | 17.7 | 0.00 | 0.03 | 0.03 | 41 | 1017.1 |
| 20260506215541 | 16 | 25 | 9.7 | 20.9 | 0.00 | 0.03 | 0.03 | 44 | 1017.2 |
| 20260506215041 | 15 | 28 | 9.7 | 20.9 | 0.00 | 0.03 | 0.03 | 43 | 1017.2 |
| 20260506214549 | 15 | 19 | 6.4 | 20.9 | 0.00 | 0.03 | 0.03 | 43 | 1017.3 |
| 20260506214042 | 15 | 36 | 12.9 | 20.9 | 0.00 | 0.03 | 0.03 | 42 | 1017.4 |
| 20260506213540 | 16 | 22 | 12.9 | 20.9 | 0.00 | 0.03 | 0.03 | 43 | 1017.3 |
| 20260506213049 | 16 | 344 | 8.0 | 20.9 | 0.00 | 0.03 | 0.03 | 41 | 1017.4 |
| 20260506212540 | 15 | 331 | 9.7 | 20.9 | 0.00 | 0.03 | 0.03 | 42 | 1017.3 |
| 20260506212040 | 15 | 24 | 11.3 | 20.9 | 0.00 | 0.03 | 0.03 | 42 | 1017.3 |
| 20260506211556 | 15 | 24 | 14.5 | 20.9 | 0.00 | 0.03 | 0.03 | 42 | 1017.4 |
| 20260506211040 | 15 | 33 | 8.0 | 20.9 | 0.00 | 0.03 | 0.03 | 41 | 1017.5 |
| 20260506210540 | 15 | 23 | 11.3 | 20.9 | 0.00 | 0.03 | 0.03 | 42 | 1017.6 |
| 20260506210057 | 16 | 69 | 6.4 | 17.7 | 0.00 | 0.03 | 0.03 | 43 | 1017.6 |
| 20260506205540 | 15 | 34 | 9.7 | 17.7 | 0.00 | 0.03 | 0.03 | 42 | 1017.5 |
| 20260506205040 | 16 | 53 | 11.3 | 20.9 | 0.00 | 0.03 | 0.03 | 42 | 1017.6 |
| 20260506204558 | 16 | 9 | 11.3 | 20.9 | 0.00 | 0.03 | 0.03 | 42 | 1017.7 |
| 20260506204039 | 16 | 46 | 16.1 | 20.9 | 0.00 | 0.03 | 0.03 | 43 | 1017.8 |
| 20260506203540 | 16 | 15 | 11.3 | 22.5 | 0.00 | 0.03 | 0.03 | 44 | 1017.9 |
| 20260506203058 | 16 | 334 | 11.3 | 22.5 | 0.00 | 0.03 | 0.03 | 43 | 1017.9 |
| 20260506202543 | 15 | 309 | 12.9 | 20.9 | 0.00 | 0.03 | 0.03 | 44 | 1018.1 |
| 20260506202041 | 15 | 51 | 4.8 | 22.5 | 0.00 | 0.03 | 0.03 | 44 | 1018.1 |
| 20260506201553 | 15 | 107 | 11.3 | 22.5 | 0.00 | 0.03 | 0.03 | 43 | 1018.2 |
| 20260506201040 | 16 | 51 | 9.7 | 22.5 | 0.00 | 0.03 | 0.03 | 41 | 1018.3 |
| 20260506200540 | 15 | 34 | 6.4 | 25.7 | 0.00 | 0.03 | 0.03 | 44 | 1018.3 |
| 20260506200047 | 15 | 45 | 11.3 | 25.7 | 0.00 | 0.03 | 0.03 | 42 | 1018.4 |
| 20260506195540 | 15 | 32 | 9.7 | 24.1 | 0.00 | 0.03 | 0.03 | 44 | 1018.5 |
| 20260506195041 | 15 | 134 | 8.0 | 24.1 | 0.00 | 0.03 | 0.03 | 46 | 1018.6 |
| 20260506194552 | 15 | 36 | 11.3 | 24.1 | 0.00 | 0.03 | 0.03 | 44 | 1018.5 |
| 20260506194040 | 15 | 28 | 6.4 | 20.9 | 0.00 | 0.03 | 0.03 | 45 | 1018.7 |
| 20260506193539 | 15 | 24 | 11.3 | 20.9 | 0.00 | 0.03 | 0.03 | 43 | 1018.7 |
| 20260506193052 | 15 | 265 | 14.5 | 20.9 | 0.00 | 0.03 | 0.03 | 43 | 1018.5 |
| 20260506192540 | 15 | 178 | 9.7 | 24.1 | 0.00 | 0.03 | 0.03 | 44 | 1018.6 |
| 20260506192040 | 15 | 53 | 12.9 | 24.1 | 0.00 | 0.03 | 0.03 | 44 | 1018.6 |
| 20260506191548 | 15 | 128 | 11.3 | 22.5 | 0.00 | 0.03 | 0.03 | 46 | 1018.6 |
| 20260506191041 | 15 | 40 | 17.7 | 22.5 | 0.00 | 0.03 | 0.03 | 45 | 1018.6 |
| 20260506190544 | 14 | 348 | 12.9 | 20.9 | 0.00 | 0.03 | 0.03 | 46 | 1018.6 |
| 20260506190051 | 14 | 34 | 9.7 | 22.5 | 0.00 | 0.03 | 0.03 | 48 | 1018.7 |
| 20260506185540 | 14 | 48 | 12.9 | 22.5 | 0.00 | 0.03 | 0.03 | 48 | 1018.7 |
| 20260506185040 | 14 | 24 | 11.3 | 19.3 | 0.00 | 0.03 | 0.03 | 47 | 1018.7 |
| 20260506184550 | 14 | 105 | 11.3 | 22.5 | 0.00 | 0.03 | 0.03 | 47 | 1018.6 |
| 20260506184040 | 14 | 61 | 14.5 | 24.1 | 0.00 | 0.03 | 0.03 | 48 | 1018.8 |
| 20260506183543 | 14 | 39 | 9.7 | 24.1 | 0.00 | 0.03 | 0.03 | 49 | 1018.7 |
| 20260506183051 | 14 | 98 | 16.1 | 24.1 | 0.00 | 0.03 | 0.03 | 49 | 1018.8 |
| 20260506182540 | 14 | 20 | 14.5 | 22.5 | 0.00 | 0.03 | 0.03 | 49 | 1018.8 |
| 20260506182040 | 13 | 61 | 12.9 | 22.5 | 0.00 | 0.03 | 0.03 | 47 | 1018.9 |
| 20260506181600 | 13 | 21 | 14.5 | 22.5 | 0.00 | 0.03 | 0.03 | 48 | 1019.2 |
| 20260506181040 | 13 | 33 | 11.3 | 25.7 | 0.00 | 0.03 | 0.03 | 48 | 1019.2 |
| 20260506180541 | 13 | 26 | 14.5 | 25.7 | 0.00 | 0.03 | 0.03 | 48 | 1019.3 |
| 20260506180055 | 13 | 344 | 16.1 | 24.1 | 0.00 | 0.03 | 0.03 | 46 | 1019.4 |
| 20260506175540 | 13 | 24 | 14.5 | 24.1 | 0.00 | 0.03 | 0.03 | 51 | 1019.4 |
| 20260506175042 | 13 | 40 | 14.5 | 24.1 | 0.00 | 0.03 | 0.03 | 47 | 1019.5 |
| 20260506174549 | 13 | 50 | 12.9 | 22.5 | 0.00 | 0.03 | 0.03 | 49 | 1019.5 |
| 20260506174040 | 13 | 44 | 16.1 | 22.5 | 0.00 | 0.03 | 0.03 | 52 | 1019.6 |
| 20260506173542 | 13 | 49 | 9.7 | 22.5 | 0.00 | 0.03 | 0.03 | 52 | 1019.6 |
| 20260506173119 | 13 | 48 | 14.5 | 22.5 | 0.00 | 0.03 | 0.03 | 52 | 1019.7 |
| 20260506172540 | 13 | 93 | 14.5 | 22.5 | 0.00 | 0.03 | 0.03 | 52 | 1019.6 |
| 20260506172041 | 12 | 51 | 12.9 | 20.9 | 0.00 | 0.03 | 0.03 | 55 | 1019.6 |
| 20260506171553 | 12 | 17 | 17.7 | 20.9 | 0.00 | 0.03 | 0.03 | 56 | 1019.7 |
| 20260506171040 | 12 | 350 | 16.1 | 22.5 | 0.00 | 0.03 | 0.03 | 56 | 1019.6 |
| 20260506170540 | 12 | 27 | 16.1 | 22.5 | 0.00 | 0.03 | 0.03 | 56 | 1019.6 |
| 20260506170055 | 12 | 38 | 16.1 | 22.5 | 0.00 | 0.03 | 0.03 | 56 | 1019.6 |
| 20260506165543 | 12 | 34 | 16.1 | 22.5 | 0.00 | 0.03 | 0.03 | 56 | 1019.6 |
| 20260506165040 | 12 | 55 | 16.1 | 22.5 | 0.00 | 0.03 | 0.03 | 58 | 1019.5 |
| 20260506164549 | 12 | 50 | 14.5 | 20.9 | 0.00 | 0.03 | 0.03 | 58 | 1019.6 |